Terminal Aerodrome Forecast
Issued by NWS Charleston, WV

Current Version | Previous Version | Graphics & Text | Print | Product List | Glossary On
Versions: 1 2 3 4 5 6 7 8 9 10 11 12 13 14 15 16 17 18 19 20 21 22 23 24 25 26 27 28 29 30 31 32 33
000
FTUS41 KRLX 231946 AAD
TAFEKN
TAF AMD
KEKN 231946Z 2320/2418 25012G22KT P6SM BKN060
     FM232300 25006KT P6SM BKN060
     FM240600 00000KT 5SM BR OVC015
     FM241100 00000KT 1 1/2SM SHRA BR OVC008
     FM241200 00000KT 1SM BR OVC008
     FM241500 00000KT 1 1/2SM SHRA BR OVC008=

USA.gov is the U.S. government's official web portal to all federal, state and local government web resources and services.